User: anonymous   Login
Location: Unspecified
(0.0000°N, 0.0000°E)
Time: 21:31:23
(UTC+00:00)
Language:

ETS 8 - Orbit

View from above orbital plane
View from above orbital plane
View from above satellite
View from above satellite

Ground track
Ground track

The orbit data is extracted from the following two-line orbital elements,

1 29656U 06059A   18146.65040287 -.00000179 +00000-0 +00000-0 0  9998
2 29656 006.2014 057.3886 0002902 279.1259 080.6358 00.99006431041892
Epoch (UTC): 26 May 2018 15:36:34
Eccentricity: 0.0002902
inclination: 6.2014°
perigee height: 36132 km
apogee height: 36157 km
right ascension of ascending node: 57.3886°
argument of perigee: 279.1259°
revolutions per day: 0.99006431
mean anomaly at epoch: 80.6358°
orbit number at epoch: 4189

The dashed part of the orbit path shows where the satellite is in the earth's shadow,  

DLR